New Iberia, LA

1:59 PM CDT on July 27, 2017 (GMT -0500)
Acadiana Regional

Weather History for KARA - August, 2013

Change the Weather History Date:

Wednesday, August 21, 2013

  Actual Average Record
Temperature  
Mean Temperature 85 °F 83 °F  
Max Temperature 94 °F 92 °F 98 °F (1948)
Min Temperature 75 °F 74 °F 65 °F (1957)
Degree Days  
Heating Degree Days 0 0  
Month to date heating degree days 0 0  
Since 1 June heating degree days 0 0  
Since 1 July heating degree days 0 0  
Cooling Degree Days 20 18  
Month to date cooling degree days 420 378  
Year to date cooling degree days 2131 1966  
Since 1 June cooling degree days 1550 1396  
Growing Degree Days 34 (Base 50)    
Moisture  
Dew Point 73 °F    
Average Humidity 70    
Maximum Humidity 88    
Minimum Humidity 52    
Precipitation  
Precipitation 0.00 in 0.17 in 1.30 in (2015)
Month to date precipitation 3.31 3.29  
Year to date precipitation 52.39 39.06  
Sea Level Pressure  
Sea Level Pressure 30.06 in    
Wind  
Wind Speed 5 mph (East)    
Max Wind Speed 17 mph    
Max Gust Speed 28 mph    
Visibility 10 miles    
Events      
T = Trace of Precipitation, MM = Missing Value Source: NWS Daily Summary

Daily Weather History Graph

Daily Weather History Graph

Search for Another Location

Airport or City:

Trip Planner

Search our weather history database for the weather conditions in past years. The results will help you decide how hot, cold, wet, or windy it might be!

Date:

Astronomy

Aug. 21, 2013 Rise Set
Actual Time 6:38 AM CDT 7:42 PM CDT
Civil Twilight 6:13 AM CDT 8:06 PM CDT
Nautical Twilight 5:44 AM CDT 8:36 PM CDT
Astronomical Twilight 5:13 AM CDT 9:06 PM CDT
Moon 8:00 PM CDT (8/21) 7:11 AM CDT (8/21)
Length of Visible Light 13h 53m
Length of Day
13h 03m
Waxing Gibbous, 99% of the Moon is Illuminated
Aug 21
Waxing Gibbous
Aug 28
Last Quarter
Sep 5
New
Sep 12
First Quarter
Sep 19
Full

Hourly Weather History & Observations

Time (CDT) Temp. Heat Index Dew Point Humidity Pressure Visibility Wind Dir Wind Speed Gust Speed Precip Events Conditions
12:53 AM 77.0 °F - 72.0 °F 84% 30.06 in 10.0 mi East 3.5 mph - N/A   Clear
1:53 AM 75.9 °F - 72.0 °F 87% 30.05 in 10.0 mi Calm Calm - N/A   Clear
2:53 AM 77.0 °F - 72.0 °F 84% 30.04 in 10.0 mi ENE 3.5 mph - N/A   Clear
3:53 AM 75.0 °F - 71.1 °F 87% 30.03 in 10.0 mi Calm Calm - N/A   Clear
4:53 AM 77.0 °F - 72.0 °F 84% 30.04 in 10.0 mi NE 4.6 mph - N/A   Clear
5:53 AM 75.9 °F - 72.0 °F 87% 30.05 in 10.0 mi NE 4.6 mph - N/A   Clear
6:53 AM 77.0 °F - 73.0 °F 88% 30.06 in 9.0 mi ENE 5.8 mph - N/A   Clear
7:53 AM 79.0 °F - 73.9 °F 84% 30.08 in 9.0 mi East 6.9 mph - N/A   Partly Cloudy
8:53 AM 84.0 °F 92.6 °F 75.9 °F 76% 30.09 in 10.0 mi East 5.8 mph - N/A   Clear
9:53 AM 87.1 °F 97.3 °F 75.9 °F 69% 30.10 in 10.0 mi East 9.2 mph - N/A   Clear
10:53 AM 89.1 °F 99.1 °F 75.0 °F 63% 30.11 in 10.0 mi East 8.1 mph - N/A   Mostly Cloudy
11:53 AM 91.0 °F 101.6 °F 75.0 °F 59% 30.10 in 10.0 mi ESE 5.8 mph - N/A   Scattered Clouds
12:53 PM 91.9 °F 103.2 °F 75.0 °F 58% 30.08 in 10.0 mi East 8.1 mph - N/A   Scattered Clouds
1:53 PM 93.0 °F 101.9 °F 73.0 °F 52% 30.06 in 10.0 mi East 4.6 mph - N/A   Partly Cloudy
2:53 PM 91.9 °F 100.7 °F 73.0 °F 54% 30.06 in 10.0 mi East 9.2 mph - N/A   Scattered Clouds
3:19 PM 87.8 °F 93.8 °F 71.6 °F 58% 30.06 in 10.0 mi SSE 15.0 mph - N/A   Mostly Cloudy
3:53 PM 84.0 °F 89.0 °F 71.1 °F 65% 30.06 in 10.0 mi SSE 10.4 mph - N/A   Clear
4:53 PM 84.9 °F 90.7 °F 72.0 °F 65% 30.04 in 10.0 mi ESE 6.9 mph - N/A   Clear
5:53 PM 87.1 °F 93.6 °F 72.0 °F 61% 30.04 in 10.0 mi ESE 10.4 mph 27.6 mph N/A   Clear
6:53 PM 84.0 °F 90.2 °F 73.0 °F 69% 30.04 in 10.0 mi East 5.8 mph - N/A   Clear
7:53 PM 82.0 °F 87.4 °F 73.0 °F 74% 30.05 in 10.0 mi ENE 6.9 mph - N/A   Clear
8:53 PM 80.1 °F 83.8 °F 72.0 °F 76% 30.04 in 10.0 mi East 3.5 mph - N/A   Clear
9:53 PM 79.0 °F - 72.0 °F 79% 30.07 in 10.0 mi ESE 4.6 mph - N/A   Clear
10:53 PM 79.0 °F - 73.0 °F 82% 30.08 in 10.0 mi Calm Calm - N/A   Clear
11:53 PM 78.1 °F - 73.0 °F 84% 30.09 in 10.0 mi Calm Calm - N/A   Clear